Location: Palomar Mountain Lodge
(33.3110°N, 116.8495°W)
Time: 19:23:36
(UTC-07:00)

Meteor 1-29 - Pass Details

Date: 19 May 2017
Orbit: 446 x 467 km, 97.7° (Epoch: 19 August)

Event Time Altitude Azimuth Distance (km) Brightness Sun altitude
Rises 20:46:31 0° 14° (NNE) 2,452 6.9 -12.3°
Reaches altitude 10° 20:48:34 10° 16° (NNE) 1,574 5.9 -12.6°
Maximum altitude 20:51:55 74° 101° (E) 466 2.8 -13.2°
Drops below altitude 10° 20:55:15 10° 187° (S) 1,557 5.4 -13.8°
Enters shadow 20:56:03 - 188° (S) 1,900 5.8 -13.9°
